Weather observations for the past three days for
Baraboo Wisconsin Dells Airport
Imperial (Metric)
Date Time (cdt) Wind (mph) Vis. (mi.) Weather Sky Cond. Temperature (ºF) Relative Humidity Wind Chill (°F) Heat Index (°F) Pressure Precipitation (in)
Air Dwpt 6 hour altimeter (in) sea level (mb) 1 hr 3 hr 6 hr
Max. Min.
24 00:35 NE 5 10.00 Overcast OVC013 65.3 64.4 97% 30.1 0.0
24 00:15 NE 3 10.00 Overcast OVC011 65.3 64.2 96% 30.1 0.0
23 23:55 NE 6 10.00 Overcast OVC011 65.3 64.6 98% 30.1 0.0
23 23:35 NE 6 10.00 Overcast OVC009 65.7 64.9 98% 30.1 0.0
23 23:15 NE 3 10.00 Overcast BKN007 BKN010 OVC110 66.2 65.5 98% 30.09 0.0
23 22:55 NE 3 10.00 Mostly Cloudy SCT010 SCT029 BKN110 66.2 65.5 98% 30.08 0.0
23 22:35 NE 3 10.00 Light Rain SCT023 SCT070 BKN100 66.7 66.2 98% 30.08 0.0
23 22:15 NE 5 10.00 Light Rain SCT008 BKN070 OVC090 67.5 66.6 97% 30.08 0.0
23 21:55 NE 5 10.00 Overcast OVC008 68 67.1 97% 30.07 0.0
23 21:35 NE 7 10.00 Overcast SCT006 BKN009 OVC100 68.2 67.1 96% 30.07 0.0
23 21:15 NE 5 10.00 Overcast SCT048 OVC100 68 66.2 94% 30.06 0.0
23 20:55 NE 7 10.00 Overcast SCT010 BKN024 OVC100 70 66.9 90% 30.06 0.0
23 20:35 N 3 10.00 Mostly Cloudy SCT011 BKN024 BKN050 70.3 67.5 91% 30.05 0.0
23 20:15 NE 8 10.00 Mostly Cloudy SCT037 SCT043 BKN049 71.1 66.2 85% 30.04 0.0
23 19:55 NE 5 10.00 Overcast SCT018 SCT035 OVC045 72.7 66.6 81% 30.04 0.0
23 19:35 Calm 10.00 Mostly Cloudy BKN047 74.5 67.5 79% 30.03 0.0
23 19:15 Calm 10.00 Fair CLR 74.5 68 80% 30.03 0.0
23 18:55 Calm 10.00 Fair CLR 75 67.6 78.3 74.7 78% 76 30.03 0.0
23 18:35 W 3 10.00 Partly Cloudy SCT120 75.4 67.1 76% 77 30.03 0.0
23 18:15 Calm 10.00 Mostly Cloudy BKN120 75.7 66.6 73% 77 30.02 0.0
23 17:55 Calm 10.00 Partly Cloudy SCT120 76.5 66.7 72% 78 30.02 0.0
23 17:35 NW 3 10.00 Partly Cloudy SCT110 77.2 65.3 67% 79 30 0.0
23 17:15 NW 3 10.00 Partly Cloudy SCT110 76.8 66.4 70% 79 30 0.0
23 16:55 NW 3 10.00 Partly Cloudy SCT026 SCT033 76.6 66.2 70% 78 30 0.0
23 16:35 W 7 10.00 Mostly Cloudy BKN028 BKN033 BKN041 77 66.2 69% 79 30 0.0
23 16:15 NW 5 10.00 Partly Cloudy SCT026 SCT032 77.2 66.2 69% 79 29.99 0.0
23 15:55 NW 7 10.00 Partly Cloudy SCT026 77 66.4 70% 79 29.99 0.0
23 15:15 N 3 10.00 Mostly Cloudy SCT024 BKN037 BKN045 77.4 66.6 69% 79 30 0.0
23 14:55 NW 5 10.00 Overcast SCT022 OVC045 77 66.2 69% 79 30 0.0
23 14:35 NW 6 10.00 Overcast SCT020 OVC043 76.1 66.6 72% 78 30 0.0
23 14:15 N 6 10.00 Overcast OVC045 76.1 66.6 72% 78 30.01 0.0
23 13:55 NW 5 10.00 Overcast SCT021 OVC043 75.9 66.4 72% 77 30 0.0
23 13:35 NW 8 10.00 Overcast SCT021 OVC041 75.4 66.6 74% 77 30.02 0.0
23 13:15 NW 3 10.00 Overcast SCT021 OVC041 74.7 66 75% 30.01 0.0
23 12:55 NW 6 10.00 Overcast BKN021 OVC041 75.7 66.4 76.3 65.7 73% 77 30.01 0.0
23 12:35 NW 6 10.00 Overcast BKN021 OVC041 75.4 66.2 73% 77 30.01 0.0
23 12:15 NW 5 10.00 Thunderstorm in Vicinity SCT019 SCT032 OVC041 75.6 66.7 74% 77 30.01 0.0
23 11:55 NW 8 10.00 Overcast SCT021 BKN029 OVC036 75.4 66.6 74% 77 30.02 0.0
23 11:35 W 6 10.00 Mostly Cloudy BKN029 BKN035 74.7 65.8 74% 30.01 0.0
23 11:15 W 6 10.00 Mostly Cloudy SCT020 BKN031 74.5 66.7 77% 30.01 0.0
23 10:55 W 5 10.00 Mostly Cloudy SCT018 BKN023 BKN033 74.5 66.6 76% 30 0.0
23 10:35 NW 5 10.00 Mostly Cloudy SCT014 BKN023 73.6 66.4 78% 30 0.0
23 10:15 NW 5 10.00 Mostly Cloudy SCT012 BKN023 72.7 67.5 84% 29.99 0.0
23 09:55 W 7 10.00 Mostly Cloudy BKN010 72.5 68.2 86% 30 0.0
23 09:35 W 8 10.00 Mostly Cloudy BKN008 BKN021 71.6 68 88% 30 0.0
23 09:15 W 6 10.00 Mostly Cloudy BKN008 BKN012 70.3 67.6 91% 30 0.0
23 08:55 W 7 10.00 Partly Cloudy SCT008 SCT020 SCT045 70.2 68 93% 29.99 0.0
23 08:35 SW 5 10.00 Mostly Cloudy SCT019 BKN045 68.9 67.8 96% 29.99 0.0
23 08:15 SW 5 10.00 Partly Cloudy SCT019 67.5 66.9 98% 29.99 0.0
23 07:55 Calm 10.00 Partly Cloudy SCT019 66.4 65.8 98% 29.98 0.0
23 07:35 Calm 7.00 Partly Cloudy SCT020 SCT038 66.2 65.3 97% 29.97 0.0
23 07:15 Calm 10.00 Partly Cloudy SCT038 SCT075 SCT090 65.8 65.3 98% 29.97 0.0
23 06:55 SW 5 10.00 Mostly Cloudy SCT040 SCT048 BKN075 65.7 64.9 69.3 65.3 98% 29.97 0.0 0.03 0.35
23 06:35 SW 6 10.00 Light Rain SCT040 BKN048 OVC075 65.5 64.6 97% 29.96 0.0 0.02
23 06:15 SW 9 10.00 Rain SCT032 BKN046 OVC055 65.3 64.4 97% 29.98 0.0 0.01
23 05:55 Calm 2.50 Heavy Rain SCT032 BKN045 OVC060 65.7 64.8 97% 29.97 0.0 0.19
23 05:35 S 6 10.00 Overcast SCT032 SCT048 OVC070 65.8 65.3 98% 29.97 0.0 0.11
23 05:15 W 5 4.00 Thunderstorm Heavy Rain SCT013 BKN050 OVC100 66.2 65.3 97% 29.99 0.0 0.09
23 04:55 W 6 7.00 Light Rain SCT065 OVC100 66.2 65.3 97% 29.97 0.0 0.12
23 04:35 SW 3 7.00 Thunderstorm Rain SCT050 BKN080 OVC090 66.2 64.9 96% 29.96 0.0 0.1
23 04:15 SW 6 4.00 Heavy Rain SCT050 BKN075 OVC085 66.9 65.3 95% 29.97 0.0 0.05
23 03:55 W 8 10.00 Light Rain SCT036 SCT042 OVC090 68.5 64.9 88% 29.97 0.0
23 03:35 W 6 10.00 Light Rain SCT036 SCT075 BKN100 68.5 66.2 92% 29.97 0.0
23 03:15 W 7 10.00 Partly Cloudy SCT100 68.2 66.4 94% 29.97 0.0
23 02:55 W 6 10.00 Thunderstorm in Vicinity CLR 68.4 66.4 93% 29.97 0.0
23 02:35 SW 5 10.00 Partly Cloudy SCT048 68.9 66.6 92% 29.96 0.0
23 02:15 SW 7 10.00 Partly Cloudy SCT048 69.1 67.1 93% 29.97 0.0
23 01:55 SW 6 10.00 Partly Cloudy SCT100 69.1 67.1 93% 29.97 0.0
23 01:35 SW 6 10.00 Partly Cloudy SCT100 69.3 67.3 93% 29.97 0.0
23 01:15 SW 6 10.00 Fair CLR 67.5 66.6 97% 29.97 0.0
23 00:55 Calm 10.00 Fair CLR 67.1 65.8 79.9 67.1 96% 29.98 0.0
23 00:35 S 3 10.00 Fair CLR 67.8 66.4 95% 29.98 0.0
23 00:15 S 5 10.00 Fair CLR 68 66.2 94% 29.98 0.0
22 23:55 Calm 10.00 Fair CLR 68 66.2 94% 29.98 0.0
22 23:35 SW 5 10.00 Fair CLR 70.2 66.6 88% 29.99 0.0
22 23:15 SW 5 10.00 Fair CLR 70.2 66.6 88% 29.98 0.0
22 22:55 SW 3 10.00 Fair CLR 69.4 66.6 91% 29.99 0.0
22 22:35 S 3 10.00 Fair CLR 68.7 66.6 93% 29.98 0.0
22 22:15 S 5 10.00 Fair CLR 69.3 66.4 91% 29.98 0.0
22 21:55 S 5 10.00 Fair CLR 69.4 66.6 91% 29.98 0.0
22 21:35 S 5 10.00 Fair CLR 71.1 66.4 85% 29.98 0.0
22 21:15 SW 5 10.00 Fair CLR 72.3 66.7 83% 29.98 0.0
22 20:55 S 5 10.00 Fair CLR 72.9 66.7 81% 29.98 0.0
22 20:35 SW 3 10.00 Fair CLR 73.2 66.6 80% 29.97 0.0
22 20:15 SW 3 10.00 Fair CLR 74.7 66.4 76% 29.97 0.0
22 19:55 SW 3 10.00 Fair CLR 76.8 66.2 70% 79 29.97 0.0
22 19:35 SW 3 10.00 Fair CLR 77.9 65.8 67% 80 29.97 0.0
22 19:15 SW 6 10.00 Fair CLR 79 66 65% 81 29.98 0.0
22 18:55 SW 5 10.00 Fair CLR 79.9 66 82.8 79.9 63% 82 29.98 0.0
22 18:35 SW 6 10.00 Partly Cloudy SCT039 SCT050 80.6 65.5 60% 83 29.98 0.0
22 18:20 SW 5 10.00 Partly Cloudy SCT039 SCT050 SCT060 81 66.2 61% 83 29.98 0.0
22 17:55 S 6 10.00 Mostly Cloudy SCT040 SCT055 BKN070 80.6 65.8 61% 83 29.98 0.0
22 17:35 S 6 10.00 Partly Cloudy SCT038 81.3 65.5 59% 83 29.98 0.0
22 17:15 S 7 10.00 Fair CLR 80.8 66.2 61% 83 29.98 0.0
22 16:55 S 6 10.00 Partly Cloudy SCT037 SCT095 80.4 65.5 60% 82 29.98 0.0
22 16:35 S 3 10.00 Fair CLR 81.9 66 59% 84 29.98 0.0
22 16:15 S 5 10.00 Fair CLR 81.5 65.8 59% 84 29.98 0.0
22 15:55 SW 6 10.00 Partly Cloudy SCT047 81.9 66.2 59% 84 29.99 0.0
22 15:35 S 5 10.00 Mostly Cloudy SCT041 BKN046 BKN055 82.2 65.5 57% 84 30 0.0
22 15:15 SE 3 10.00 Overcast BKN038 BKN045 OVC070 81.9 65.8 58% 84 30.02 0.0
22 14:55 SE 5 10.00 Overcast BKN038 BKN045 OVC055 81.7 66.2 60% 84 30.02 0.0
22 14:35 Calm 10.00 Overcast SCT041 OVC060 81.5 63.3 54% 83 30.03 0.0
22 14:15 Calm 10.00 Overcast BKN039 BKN070 OVC080 81.1 65.5 59% 83 30.04 0.0
22 13:55 Calm 10.00 Mostly Cloudy SCT037 SCT050 BKN065 80.8 63.1 55% 82 30.04 0.0
22 13:35 S 6 10.00 Mostly Cloudy SCT037 BKN048 BKN070 81.5 65.1 58% 83 30.05 0.0
22 13:15 Calm 10.00 Partly Cloudy SCT035 SCT050 80.2 63.7 57% 82 30.05 0.0
22 12:55 SE 5 10.00 Partly Cloudy SCT035 81 64.9 81 63.7 58% 83 30.06 0.0
22 12:35 Calm 10.00 Partly Cloudy SCT035 80.4 65.1 60% 82 30.06 0.0
22 12:15 Calm 10.00 Mostly Cloudy BKN035 78.4 63.7 61% 80 30.07 0.0
22 11:55 Calm 10.00 Mostly Cloudy BKN035 78.8 63.3 59% 80 30.07 0.0
22 11:35 Calm 10.00 Partly Cloudy SCT035 77.9 63.7 62% 80 30.07 0.0
22 11:15 Calm 10.00 Partly Cloudy SCT035 77.5 63 61% 79 30.08 0.0
22 10:55 SW 3 10.00 Partly Cloudy SCT025 77.4 62.8 61% 79 30.08 0.0
22 10:35 Calm 10.00 Partly Cloudy SCT025 76.6 62.2 61% 78 30.08 0.0
22 10:15 Calm 10.00 Fair CLR 75.9 61.2 60% 78 30.08 0.0
22 09:55 S 3 10.00 Fair CLR 75.2 62.4 65% 77 30.08 0.0
22 09:35 Calm 10.00 Fair CLR 74.3 62.8 67% 30.08 0.0
22 09:15 Calm 10.00 Fair CLR 73.4 62.6 69% 30.08 0.0
22 08:55 Calm 10.00 Partly Cloudy SCT065 71.4 60.3 68% 30.09 0.0
22 08:35 Calm 10.00 Fair CLR 69.8 62.1 77% 30.09 0.0
22 08:15 Calm 10.00 Fair CLR 67.5 65.1 92% 30.08 0.0
22 07:55 Calm 10.00 Fair CLR 66.4 65.7 98% 30.09 0.0
22 07:35 Calm 10.00 Fair CLR 65.3 64.8 98% 30.09 0.0
22 07:15 Calm 7.00 Partly Cloudy SCT080 64.4 64.2 99% 30.08 0.0
22 06:55 Calm 7.00 Mostly Cloudy BKN070 63.7 63.5 63.7 59.4 99% 30.09 0.0
22 06:35 Calm 7.00 Mostly Cloudy BKN070 BKN090 62.8 62.6 99% 30.08 0.0
22 06:15 Calm 7.00 Mostly Cloudy BKN100 61.7 61.3 99% 30.08 0.0
22 05:55 Calm 10.00 Overcast OVC090 61.7 61.7 100% 30.08 0.0
22 05:35 Calm 10.00 Overcast OVC090 61 60.8 99% 30.08 0.0
22 05:15 Calm 10.00 Mostly Cloudy BKN090 60.3 60.1 99% 30.08 0.0
22 04:55 Calm 1.50 Fog/Mist VV007 59.9 59.5 99% 30.08 0.0
22 04:35 Calm 3.00 Fog/Mist CLR 59.9 59.5 99% 30.08 0.0
22 04:15 Calm 7.00 Fair CLR 60.4 60.1 99% 30.08 0.0
22 03:55 Calm 7.00 Fair CLR 60.8 60.3 98% 30.09 0.0
22 03:35 Calm 7.00 Fair CLR 61.2 60.8 99% 30.09 0.0
22 03:15 Calm 7.00 Fair CLR 61.7 61.2 98% 30.09 0.0
22 02:55 Calm 10.00 Fair CLR 61.9 61.7 99% 30.09 0.0
22 02:35 Calm 10.00 Fair CLR 62.2 61.9 99% 30.09 0.0
22 02:15 Calm 7.00 Fair CLR 62.6 61.9 98% 30.09 0.0
22 01:55 Calm 10.00 Fair CLR 63.1 62.6 98% 30.09 0.0
22 01:35 Calm 10.00 Fair CLR 63.7 63.1 98% 30.09 0.0
22 01:15 Calm 10.00 Fair CLR 63.1 62.6 98% 30.1 0.0
22 00:55 Calm 10.00 Fair CLR 63.1 62.6 78.1 62.8 98% 30.11 0.0
22 00:35 Calm 10.00 Partly Cloudy SCT028 63.5 62.8 98% 30.11 0.0
22 00:15 Calm 10.00 Fair CLR 63.7 63 98% 30.12 0.0
21 23:55 Calm 10.00 Fair CLR 64.2 63.3 97% 30.12 0.0
21 23:35 Calm 10.00 Partly Cloudy SCT029 64.6 63.7 97% 30.12 0.0
21 23:15 Calm 10.00 Partly Cloudy SCT029 65.1 63.9 96% 30.12 0.0
21 22:55 Calm 10.00 Fair CLR 65.1 63.5 95% 30.12 0.0
21 22:35 Calm 10.00 Partly Cloudy SCT030 66 63.7 92% 30.12 0.0
21 22:15 Calm 10.00 Mostly Cloudy BKN030 66.4 64.6 94% 30.12 0.0
21 21:55 Calm 10.00 Partly Cloudy SCT030 67.1 63.9 89% 30.12 0.0
21 21:35 Calm 10.00 Fair CLR 67.8 63.9 87% 30.12 0.0
21 21:15 Calm 10.00 Partly Cloudy SCT110 67.8 64.4 89% 30.12 0.0
21 20:55 Calm 10.00 Mostly Cloudy SCT031 BKN110 68 64.8 89% 30.11 0.0
21 20:35 Calm 10.00 Mostly Cloudy BKN031 BKN110 68.7 64.8 87% 30.12 0.0
21 20:15 W 3 10.00 Partly Cloudy SCT031 68.9 64.2 85% 30.12 0.0
21 19:55 Calm 10.00 Partly Cloudy SCT033 SCT039 SCT049 69.8 63.1 80% 30.11 0.0
21 19:35 SW 5 10.00 Mostly Cloudy SCT026 BKN031 BKN037 70.7 62.6 76% 30.12 0.0
21 19:15 S 10 10.00 Mostly Cloudy BKN028 BKN050 BKN060 72 62.4 72% 30.12 0.0
21 18:55 E 6 10.00 Partly Cloudy SCT033 SCT110 78.3 65.8 82 75.2 66% 80 30.1 0.0
21 18:35 NE 8 10.00 Partly Cloudy SCT033 SCT110 79 66.2 65% 81 30.09 0.0
21 18:15 NE 6 10.00 Fair CLR 78.6 65.8 65% 81 30.09 0.0
21 17:55 NE 7 10.00 Fair CLR 79.3 66.6 65% 81 30.09 0.0
21 17:35 NE 7 10.00 Fair CLR 79.7 66.6 64% 82 30.09 0.0
21 17:15 N 7 10.00 Fair CLR 80.2 67.6 66% 83 30.09 0.0
21 16:55 NE 8 10.00 Partly Cloudy SCT035 SCT041 79.9 67.5 66% 82 30.09 0.0
21 16:35 N 9 10.00 Partly Cloudy SCT032 SCT039 SCT060 78.8 67.5 68% 81 30.09 0.0
21 16:15 N 6 10.00 Partly Cloudy SCT032 SCT041 SCT049 79 67.3 67% 81 30.09 0.0
21 15:55 NE 7 10.00 Partly Cloudy SCT032 81.5 66.9 61% 84 30.1 0.0
21 15:35 NE 3 10.00 Partly Cloudy SCT030 SCT037 81.3 66.7 61% 84 30.1 0.0
21 15:15 Calm 10.00 Partly Cloudy SCT028 81.3 66.4 61% 84 30.12 0.0
21 14:55 NE 5 10.00 Partly Cloudy SCT028 80.2 67.1 64% 83 30.12 0.0
21 14:35 NE 3 10.00 Partly Cloudy SCT028 80.2 67.3 65% 83 30.13 0.0
21 14:20 Calm 10.00 Partly Cloudy SCT024 79.5 66.9 65% 82 30.13 0.0
21 13:55 NE 3 10.00 Partly Cloudy SCT022 78.8 67.1 67% 81 30.14 0.0
21 13:35 E 3 10.00 Mostly Cloudy BKN020 77.7 66.7 69% 80 30.14 0.0
21 13:20 NE 3 10.00 Mostly Cloudy BKN020 76.1 67.1 74% 78 30.15 0.0
21 12:55 Calm 10.00 Mostly Cloudy BKN020 76.1 67.1 76.8 66.2 74% 78 30.15 0.0
21 12:35 NE 3 10.00 Mostly Cloudy BKN018 76.6 67.5 73% 78 30.15 0.0
21 12:15 E 3 10.00 Overcast OVC018 74.5 66.9 77% 30.15 0.0
21 11:55 NE 5 10.00 Overcast OVC018 74.7 66.6 76% 30.15 0.0
21 11:35 E 5 10.00 Overcast OVC016 73.9 66.4 77% 30.15 0.0
21 11:15 NE 5 10.00 Overcast OVC016 73.6 66.6 79% 30.15 0.0
21 10:55 Calm 10.00 Overcast OVC012 71.6 66.2 83% 30.16 0.0
21 10:35 NE 5 10.00 Overcast OVC012 71.2 66.6 85% 30.16 0.0
21 10:15 NE 5 10.00 Overcast OVC010 70.9 66.4 86% 30.16 0.0
21 09:55 NE 5 10.00 Overcast OVC010 72 67.1 85% 30.16 0.0
21 09:35 E 5 10.00 Overcast OVC010 71.8 66.7 84% 30.15 0.0
21 09:15 E 3 10.00 Mostly Cloudy BKN010 BKN070 70.9 66.4 86% 30.15 0.0
21 08:55 NE 3 10.00 Partly Cloudy SCT060 70.3 65.5 85% 30.15 0.0
21 08:35 NE 5 10.00 Fair CLR 70.5 65.7 85% 30.15 0.0
21 08:15 NE 5 10.00 Fair CLR 69.3 64.8 86% 30.14 0.0
21 07:35 Calm 10.00 Fair CLR 68 64.6 89% 30.14 0.0
21 07:15 NE 3 10.00 Fair CLR 67.3 64.6 91% 30.13 0.0
21 06:55 Calm 10.00 Partly Cloudy SCT070 SCT095 66.2 64.4 67.3 62.6 94% 30.14 0.0
21 06:35 Calm 10.00 Mostly Cloudy BKN070 65.3 64.2 96% 30.14 0.0
21 06:15 Calm 10.00 Mostly Cloudy BKN070 64.4 63.1 96% 30.14 0.0
21 05:55 Calm 10.00 Mostly Cloudy BKN070 BKN090 64.6 63 95% 30.13 0.0
21 05:35 Calm 10.00 Mostly Cloudy BKN090 66 63.5 92% 30.13 0.0
21 05:15 Calm 10.00 Overcast SCT065 OVC080 66.2 63.7 92% 30.13 0.0
21 04:55 Calm 10.00 Overcast BKN065 OVC090 65.3 63.7 95% 30.13 0.0
21 04:35 NW 5 10.00 Overcast OVC065 64.8 63.9 97% 30.13 0.0
21 04:15 Calm 10.00 Overcast OVC075 64.4 63.5 97% 30.12 0.0
21 03:55 Calm 10.00 Overcast OVC075 63.9 63.1 98% 30.11 0.0
21 03:35 Calm 10.00 Mostly Cloudy BKN075 63.1 62.4 98% 30.11 0.0
21 03:15 Calm 10.00 Partly Cloudy SCT075 62.6 61.7 97% 30.11 0.0
21 02:55 Calm 10.00 Partly Cloudy SCT075 63.5 62.2 96% 30.11 0.0
21 02:35 Calm 10.00 Fair CLR 64.4 63 95% 30.11 0.0
21 02:15 Calm 10.00 Fair CLR 64.4 62.6 94% 30.11 0.0
21 01:55 Calm 10.00 Partly Cloudy SCT047 SCT055 SCT080 66.9 63.5 89% 30.12 0.0
21 01:35 Calm 10.00 Overcast BKN050 BKN065 OVC080 66.2 64.4 94% 30.12 0.0
21 01:15 Calm 10.00 Overcast BKN050 OVC065 66.2 64.4 94% 30.12 0.0
21 00:55 Calm 10.00 Mostly Cloudy SCT055 BKN065 64.8 63.5 78.4 63.1 96% 30.12 0.0
Date Time (cdt) Wind (mph) Vis. (mi.) Weather Sky Cond. Air Dwpt Max. Min. Relative Humidity Wind Chill (°F) Heat Index (°F) altimeter (in) sea level (mb) 1 hr 3 hr 6 hr
6 hour
Temperature (ºF) Pressure Precipitation (in)